User: anonymous   Login
Location: Newark
(36.1358°N, 115.1208°W)
Time: 21:31:14
(UTC+00:00)
Language:

SO-50 - Orbit

View from above orbital plane
View from above orbital plane
View from above satellite
View from above satellite

Ground track
Ground track

The orbit data is extracted from the following two-line orbital elements,

1 27607U 02058C   20093.12536657  .00000027  00000-0  24585-4 0  9993
2 27607  64.5545 247.7345 0057529 196.9585 162.9597 14.75620881929591
Epoch (UTC): 02 April 2020 03:00:31
Eccentricity: 0.0057529
inclination: 64.5545°
perigee height: 603 km
apogee height: 683 km
right ascension of ascending node: 247.7345°
argument of perigee: 196.9585°
revolutions per day: 14.75620881
mean anomaly at epoch: 162.9597°
orbit number at epoch: 92959

The dashed part of the orbit path shows where the satellite is in the earth's shadow,  

DLR